Tracking 30970 objects as of 3-Jul-2025
HD Live streaming from Space Station
objects crossing your sky now

DELTA 1 DEB

Track DELTA 1 DEB now!
10-day predictions


NORAD ID: 26036
Int'l Code: 1975-052KA
Perigee: 616.9 km
Apogee: 716.2 km
Inclination: 99.9 °
Period: 97.9 minutes
Semi major axis: 7037 km
RCS: 0.0044 m2 (small)
Launch date: June 12, 1975
Source: United States (US)
Launch site: AIR FORCE WESTERN TEST RANGE (AFWTR)

Note: This is SATELLITE DEBRIS
Your satellite tracking list
Your tracking list is empty




NASA's NSSDC Master Catalog

Two Line Element Set (TLE):
1 26036U 75052KA  25183.36884304  .00008400  00000-0  13424-2 0  9999
2 26036  99.9489 326.5814 0070569  41.6363 319.0180 14.70508675382802
Source of the keplerian elements: AFSPC